User: anonymous
Location: Fishcreek Rd Observing Site
(41.1865°N, 81.4271°W)
Time: 10:04:05
(UTC-04:00)
Language:

Iridium 45 - Orbit

View from above orbital plane
View from above orbital plane
View from above satellite
View from above satellite

Ground track
Ground track

The orbit data is extracted from the following two-line orbital elements,

1 25104U 97082A   14244.39469834  .00000257  00000-0  84951-4 0  8746
2 25104 087.0307 332.4777 0002634 102.7548 257.3943 14.34223611874205
Epoch (UTC): 01 September 2014 09:28:21
Eccentricity: 0.0002634
inclination: 87.0307°
perigee height: 776 km
apogee height: 779 km
right ascension of ascending node: 332.4777°
argument of perigee: 102.7548°
revolutions per day: 14.34223611
mean anomaly at epoch: 257.3943°
orbit number at epoch: 87420

The dashed part of the orbit path shows where the satellite is in the earth's shadow,  

DLR